Location: Newark
(23.3970°S, 47.6010°W)
Time: 12:19:50
(UTC+00:00)

Tiros 1 despin weight - Pass Details

Date: 21 February 2020
Orbit: 593 x 642 km, 48.2° (Epoch: 03 April)

Event Time Altitude Azimuth Distance (km) Brightness Sun altitude
Rises 13:44:40 0° 331° (NNW) 2,869 ? 63.1°
Reaches altitude 10° 13:47:01 10° 337° (NNW) 1,978 ? 63.6°
Maximum altitude 13:51:22 45° 49° (NE) 864 ? 64.5°
Drops below altitude 10° 13:55:49 10° 121° (ESE) 2,025 ? 65.4°
Sets 13:58:14 0° 127° (SE) 2,945 ? 65.9°
